星链-31625 (STARLINK-31625 )

导读 | 豆包AI

STARLINK-31625是美国于2024年4月10日发射的星链卫星,隶属于SpaceX的星链互联网星座项目。星链计划旨在通过大规模低轨卫星组网,为全球提供高速低延迟互联网覆盖,尤其服务偏远地区与网络基础设施匮乏区域。该卫星是星链星座扩容的一员,进一步推动了星座全球服务能力的完善。

基本信息
目录编号:
59458
目录名称:
STARLINK-31625
国际标识:
2024-068D
轨道中心:
EARTH
卫星名称:
星链-31625
卫星全名:
星链-31625 (STARLINK-31625 )
卫星状态:
在轨 (已飞行704 天)
发射日期:
2024-04-10 UTC
国别 :
美国 (US)
星等 :
--
轨道信息
数据来源 国际轨道数据
星历时间: 2026-03-15T04:48:31+0800
23小时前
查看轨道信息
半长轴: 6861.18km
偏心率: 0.0001174
轨道倾角: 43.005°
近地点辐角 265.327°
升交点赤经 5.355°
平近点角 94.745°
近地点: 482.237km
远地点: 483.849km
周期: 94.267分钟
每日圈数: 15.275822
详细信息
固有亮度:
5
最大亮度:
1.5
卫星平台:
Starlink v2.0 mini
覆盖范围:
全球
运营商:
太空探索技术公司
运营商所在国:
美国
制造商(研发单位):
太空探索技术公司
制造商所在国:
美国
使用方式:
暂无
卫星简介
星链(Starlink)计划是由太空探索技术公司(SpaceX)提出的一个巨型低轨卫星互联网星座项目,计划在2019年至2024年间在太空搭建由约1.2万颗卫星组成的“星链”网络,其中1584颗将部署在地球上空550千米处的近地轨道,并从2020年开始工作。该卫星仍在工作。
2D轨道图
3D轨道图
轨道高度分析图
轨道倾角分析图
轨道综合分析图
查看轨道综合分析图